• In Kazakhstan
  • List of Countries
  • For 7 days
  • Water Temperature
  • Satellite Maps
  • Weather Map
  • News
  • Weather Widgets
  • user-avatar
    Login

    Hourly Weather Banka

    Today, 21 November, Tuesday

    Time Temperature Precipitation Wind Pressure Humidity
    00:00 +24°C° 0 mm 3 mps 751 mmHg 59%
    01:00 +24°C° 0 mm 3 mps 751 mmHg 57%
    02:00 +22°C° 0 mm 3 mps 751 mmHg 55%
    03:00 +22°C° 0 mm 3 mps 751 mmHg 54%
    04:00 +21°C° 0 mm 3 mps 751 mmHg 53%
    05:00 +21°C° 0 mm 3 mps 751 mmHg 53%
    06:00 +20°C° 0 mm 2 mps 752 mmHg 56%
    07:00 +21°C° 0 mm 3 mps 752 mmHg 53%
    08:00 +22°C° 0 mm 3 mps 753 mmHg 50%
    09:00 +25°C° 0 mm 4 mps 753 mmHg 47%
    10:00 +26°C° 0 mm 4 mps 753 mmHg 42%
    11:00 +27°C° 0 mm 4 mps 753 mmHg 37%
    12:00 +29°C° 0 mm 5 mps 753 mmHg 34%
    13:00 +29°C° 0 mm 5 mps 752 mmHg 32%
    14:00 +29°C° 0 mm 5 mps 752 mmHg 30%
    15:00 +29°C° 0 mm 5 mps 751 mmHg 28%
    16:00 +27°C° 0 mm 4 mps 751 mmHg 31%
    17:00 +25°C° 0 mm 3 mps 751 mmHg 33%
    18:00 +22°C° 0 mm 3 mps 751 mmHg 35%
    19:00 +22°C° 0 mm 3 mps 751 mmHg 35%
    20:00 +21°C° 0 mm 3 mps 752 mmHg 34%
    21:00 +20°C° 0 mm 3 mps 752 mmHg 34%
    22:00 +20°C° 0 mm 3 mps 752 mmHg 34%
    23:00 +20°C° 0 mm 3 mps 752 mmHg 33%

    Tomorrow, 22 November, Wednesday

    Time Temperature Precipitation Wind Pressure Humidity
    00:00 +19°C° 0 mm 3 mps 752 mmHg 33%
    01:00 +19°C° 0 mm 3 mps 752 mmHg 35%
    02:00 +18°C° 0 mm 3 mps 751 mmHg 36%
    03:00 +18°C° 0 mm 3 mps 751 mmHg 38%
    04:00 +17°C° 0 mm 3 mps 751 mmHg 39%
    05:00 +17°C° 0 mm 2 mps 751 mmHg 40%
    06:00 +16°C° 0 mm 2 mps 751 mmHg 41%
    07:00 +18°C° 0 mm 2 mps 752 mmHg 40%
    08:00 +19°C° 0 mm 3 mps 752 mmHg 38%
    09:00 +21°C° 0 mm 3 mps 753 mmHg 36%
    10:00 +22°C° 0 mm 3 mps 753 mmHg 33%
    11:00 +25°C° 0 mm 3 mps 753 mmHg 29%
    12:00 +27°C° 0 mm 3 mps 752 mmHg 25%
    13:00 +27°C° 0 mm 3 mps 752 mmHg 25%
    14:00 +27°C° 0 mm 3 mps 751 mmHg 25%
    15:00 +27°C° 0 mm 3 mps 750 mmHg 25%
    16:00 +26°C° 0 mm 3 mps 750 mmHg 28%
    17:00 +24°C° 0 mm 2 mps 750 mmHg 31%
    18:00 +21°C° 0 mm 2 mps 750 mmHg 34%
    19:00 +20°C° 0 mm 2 mps 750 mmHg 35%
    20:00 +20°C° 0 mm 2 mps 751 mmHg 36%
    21:00 +19°C° 0 mm 2 mps 751 mmHg 36%
    22:00 +19°C° 0 mm 2 mps 751 mmHg 37%
    23:00 +18°C° 0 mm 2 mps 751 mmHg 37%

    Day after tomorrow, 23 November, Thursday

    Time Temperature Precipitation Wind Pressure Humidity
    00:00 +18°C° 0 mm 2 mps 751 mmHg 38%
    01:00 +18°C° 0 mm 2 mps 751 mmHg 38%
    02:00 +17°C° 0 mm 2 mps 751 mmHg 39%
    03:00 +17°C° 0 mm 2 mps 751 mmHg 39%
    04:00 +17°C° 0 mm 2 mps 751 mmHg 40%
    05:00 +16°C° 0 mm 2 mps 751 mmHg 41%
    06:00 +16°C° 0 mm 2 mps 751 mmHg 41%
    07:00 +17°C° 0 mm 2 mps 752 mmHg 40%
    08:00 +19°C° 0 mm 2 mps 753 mmHg 39%
    09:00 +20°C° 0 mm 2 mps 753 mmHg 38%
    10:00 +23°C° 0 mm 2 mps 753 mmHg 36%
    11:00 +24°C° 0 mm 2 mps 753 mmHg 34%
    12:00 +26°C° 0 mm 2 mps 753 mmHg 33%
    13:00 +26°C° 0 mm 2 mps 752 mmHg 32%
    14:00 +27°C° 0 mm 2 mps 751 mmHg 31%
    15:00 +28°C° 0 mm 2 mps 750 mmHg 30%
    16:00 +26°C° 0 mm 2 mps 750 mmHg 34%
    17:00 +24°C° 0 mm 2 mps 750 mmHg 37%
    18:00 +21°C° 0 mm 2 mps 750 mmHg 41%
    19:00 +21°C° 0 mm 2 mps 751 mmHg 42%
    20:00 +20°C° 0 mm 2 mps 752 mmHg 43%
    21:00 +19°C° 0 mm 2 mps 752 mmHg 44%
    22:00 +19°C° 0 mm 2 mps 752 mmHg 45%
    23:00 +19°C° 0 mm 2 mps 752 mmHg 45%

    24 November, Friday

    Time Temperature Precipitation Wind Pressure Humidity
    00:00 +18°C° 0 mm 2 mps 752 mmHg 46%
    01:00 +19°C° 0 mm 1 mps 752 mmHg 46%
    02:00 +19°C° 0 mm 1 mps 752 mmHg 47%
    03:00 +18°C° 0 mm 1 mps 752 mmHg 47%
    04:00 +18°C° 0 mm 1 mps 752 mmHg 48%
    05:00 +18°C° 0 mm 1 mps 752 mmHg 48%
    06:00 +16°C° 0 mm 1 mps 752 mmHg 49%
    07:00 +19°C° 0 mm 1 mps 753 mmHg 46%
    08:00 +19°C° 0 mm 2 mps 754 mmHg 44%
    09:00 +21°C° 0 mm 2 mps 754 mmHg 41%
    10:00 +23°C° 0 mm 2 mps 754 mmHg 38%
    11:00 +25°C° 0 mm 2 mps 754 mmHg 36%
    12:00 +26°C° 0 mm 2 mps 754 mmHg 33%
    13:00 +27°C° 0 mm 2 mps 753 mmHg 32%
    14:00 +27°C° 0 mm 2 mps 752 mmHg 31%
    15:00 +28°C° 0 mm 2 mps 752 mmHg 29%
    16:00 +26°C° 0 mm 2 mps 752 mmHg 33%
    17:00 +24°C° 0 mm 2 mps 752 mmHg 36%
    18:00 +23°C° 0 mm 2 mps 752 mmHg 39%
    19:00 +21°C° 0 mm 2 mps 752 mmHg 40%
    20:00 +21°C° 0 mm 1 mps 753 mmHg 41%
    21:00 +21°C° 0 mm 1 mps 753 mmHg 42%
    22:00 +20°C° 0 mm 1 mps 753 mmHg 42%
    23:00 +20°C° 0 mm 1 mps 753 mmHg 42%

    25 November, Saturday

    Time Temperature Precipitation Wind Pressure Humidity
    00:00 +19°C° 0 mm 1 mps 753 mmHg 43%
    01:00 +19°C° 0 mm 1 mps 753 mmHg 43%
    02:00 +19°C° 0 mm 1 mps 753 mmHg 43%
    03:00 +18°C° 0 mm 1 mps 753 mmHg 44%
    04:00 +18°C° 0 mm 1 mps 753 mmHg 44%
    05:00 +18°C° 0 mm 1 mps 753 mmHg 44%
    06:00 +16°C° 0 mm 1 mps 754 mmHg 45%
    07:00 +19°C° 0 mm 1 mps 754 mmHg 42%
    08:00 +21°C° 0 mm 1 mps 755 mmHg 40%
    09:00 +22°C° 0 mm 1 mps 756 mmHg 38%
    10:00 +24°C° 0 mm 2 mps 755 mmHg 36%
    11:00 +25°C° 0 mm 2 mps 755 mmHg 33%
    12:00 +26°C° 0 mm 2 mps 754 mmHg 31%
    13:00 +27°C° 0 mm 2 mps 754 mmHg 30%
    14:00 +27°C° 0 mm 2 mps 753 mmHg 30%
    15:00 +28°C° 0 mm 1 mps 752 mmHg 29%
    16:00 +26°C° 0 mm 1 mps 753 mmHg 32%
    17:00 +25°C° 0 mm 1 mps 753 mmHg 35%
    18:00 +23°C° 0 mm 1 mps 753 mmHg 38%
    19:00 +22°C° 0 mm 1 mps 754 mmHg 39%
    20:00 +22°C° 0 mm 1 mps 754 mmHg 40%
    21:00 +21°C° 0 mm 1 mps 755 mmHg 40%
    22:00 +21°C° 0 mm 1 mps 754 mmHg 41%
    23:00 +20°C° 0 mm 1 mps 754 mmHg 41%

    26 November, Sunday

    Time Temperature Precipitation Wind Pressure Humidity
    00:00 +20°C° 0 mm 1 mps 754 mmHg 42%
    01:00 +20°C° 0 mm 1 mps 754 mmHg 42%
    02:00 +19°C° 0 mm 1 mps 754 mmHg 43%
    03:00 +19°C° 0 mm 1 mps 754 mmHg 43%
    04:00 +18°C° 0 mm 1 mps 754 mmHg 44%
    05:00 +18°C° 0 mm 1 mps 754 mmHg 45%
    06:00 +18°C° 0 mm 1 mps 754 mmHg 45%
    07:00 +19°C° 0 mm 1 mps 755 mmHg 43%
    08:00 +21°C° 0 mm 1 mps 756 mmHg 40%
    09:00 +22°C° 0 mm 1 mps 756 mmHg 38%
    10:00 +24°C° 0 mm 1 mps 756 mmHg 36%
    11:00 +25°C° 0 mm 1 mps 755 mmHg 33%
    12:00 +27°C° 0 mm 1 mps 755 mmHg 31%
    13:00 +27°C° 0 mm 1 mps 754 mmHg 30%
    14:00 +27°C° 0 mm 1 mps 753 mmHg 29%
    15:00 +28°C° 0 mm 2 mps 753 mmHg 28%
    16:00 +26°C° 0 mm 1 mps 753 mmHg 31%
    17:00 +25°C° 0 mm 1 mps 753 mmHg 34%
    18:00 +23°C° 0 mm 1 mps 753 mmHg 37%
    19:00 +23°C° 0 mm 1 mps 753 mmHg 38%
    20:00 +22°C° 0 mm 1 mps 753 mmHg 38%
    21:00 +21°C° 0 mm 1 mps 754 mmHg 39%
    22:00 +21°C° 0 mm 1 mps 754 mmHg 39%
    23:00 +20°C° 0 mm 1 mps 754 mmHg 40%
    Show more